TimeEST,TemperatureF,Dew PointF,Humidity,Sea Level PressureIn,VisibilityMPH,Wind Direction,Wind SpeedMPH,Gust SpeedMPH,PrecipitationIn,Events,Conditions,WindDirDegrees,DateUTC
12:00 AM,51.8,44.6,76,30.02,9.0,SSW,18.4,26.5,N/A,,Overcast,200,2012-12-02 05:00:00
1:00 AM,17,9,58,30.61,,SSE,2.3,,,,,150,2012-12-02 06:00:00
1:00 AM,53.6,44.6,72,30.00,9.0,SSW,19.6,26.5,N/A,,Overcast,210,2012-12-02 06:00:00
1:26 AM,51.8,46.4,82,30.00,9.0,SSW,16.1,23.0,N/A,Rain,Light Rain,210,2012-12-02 06:26:00
1:34 AM,51.8,46.4,82,30.00,5.0,SSW,17.3,23.0,N/A,Rain,Light Rain,200,2012-12-02 06:34:00
1:40 AM,51.8,46.4,82,30.00,6.0,SSW,16.1,25.3,N/A,Rain,Light Rain,200,2012-12-02 06:40:00
1:57 AM,51.8,46.4,82,30.00,5.0,SSW,19.6,27.6,N/A,Rain,Light Rain,200,2012-12-02 06:57:00
2:00 AM,51.8,46.4,82,30.00,5.0,SSW,20.7,28.8,N/A,Rain,Light Rain,210,2012-12-02 07:00:00
2:29 AM,50.0,46.4,87,30.00,6.0,SSW,13.8,25.3,N/A,Rain,Light Rain,200,2012-12-02 07:29:00
3:00 AM,50.0,48.2,94,29.99,6.0,South,15.0,21.9,N/A,Rain,Light Rain,190,2012-12-02 08:00:00
3:04 AM,50.0,48.2,94,29.98,5.0,South,15.0,21.9,N/A,Rain,Rain,190,2012-12-02 08:04:00
3:21 AM,50.0,48.2,94,29.97,6.0,South,17.3,24.2,N/A,Rain,Light Rain,190,2012-12-02 08:21:00
4:00 AM,50.0,48.2,94,29.95,9.0,SSW,15.0,21.9,N/A,Rain,Light Rain,200,2012-12-02 09:00:00
4:05 AM,50.0,48.2,94,29.95,9.0,SSW,15.0,21.9,N/A,,Overcast,200,2012-12-02 09:05:00
5:00 AM,51.8,46.4,82,29.94,9.0,SSW,17.3,24.2,N/A,,Overcast,200,2012-12-02 10:00:00
7:00 AM,21,18,81,30.48,,South,4.6,,,,,180,2012-12-02 12:00:00
7:00 AM,51.8,46.4,82,29.94,9.0,SSW,13.8,-,N/A,,Overcast,200,2012-12-02 12:00:00
7:39 AM,50.0,48.2,94,29.94,9.0,SSW,11.5,19.6,N/A,Rain,Light Rain,210,2012-12-02 12:39:00
7:53 AM,51.8,48.2,88,29.94,9.0,SSW,11.5,18.4,N/A,,Overcast,210,2012-12-02 12:53:00
8:00 AM,51.8,48.2,88,29.93,9.0,SSW,11.5,18.4,N/A,,Overcast,210,2012-12-02 13:00:00
8:15 AM,51.8,48.2,88,29.94,9.0,SSW,11.5,-,N/A,Rain,Light Rain,210,2012-12-02 13:15:00
8:39 AM,51.8,48.2,88,29.93,9.0,SSW,9.2,-,N/A,,Overcast,210,2012-12-02 13:39:00
8:44 AM,51.8,48.2,88,29.93,9.0,SSW,10.4,-,N/A,Rain,Light Rain,210,2012-12-02 13:44:00
9:00 AM,51.8,48.2,88,29.93,6.0,SSW,11.5,-,N/A,Rain,Light Rain,200,2012-12-02 14:00:00
9:04 AM,51.8,48.2,88,29.93,5.0,SSW,10.4,-,N/A,Rain,Light Rain,200,2012-12-02 14:04:00
9:33 AM,51.8,50.0,94,29.92,6.0,SSW,12.7,-,N/A,Rain,Light Rain,200,2012-12-02 14:33:00
9:49 AM,51.8,50.0,94,29.92,6.0,SSW,13.8,-,N/A,,Overcast,210,2012-12-02 14:49:00
10:00 AM,51.8,50.0,94,29.92,6.0,SSW,10.4,-,N/A,,Overcast,210,2012-12-02 15:00:00
10:12 AM,51.8,50.0,94,29.92,6.0,SSW,10.4,17.3,N/A,Rain,Light Rain,210,2012-12-02 15:12:00
10:21 AM,51.8,50.0,94,29.92,6.0,SW,13.8,-,N/A,Rain,Light Rain,220,2012-12-02 15:21:00
10:30 AM,51.8,50.0,94,29.92,5.0,SSW,9.2,20.7,N/A,Rain,Light Rain,210,2012-12-02 15:30:00
11:00 AM,51.8,50.0,94,29.92,5.0,SW,10.4,-,N/A,Rain,Light Rain,220,2012-12-02 16:00:00
11:36 AM,51.8,51.8,100,29.91,5.0,SW,10.4,-,N/A,,Overcast,220,2012-12-02 16:36:00
12:00 PM,53.6,51.8,94,29.90,5.0,SW,10.4,-,N/A,,Overcast,220,2012-12-02 17:00:00
12:07 PM,53.6,51.8,94,29.90,6.0,SW,9.2,-,N/A,,Overcast,220,2012-12-02 17:07:00
1:00 PM,31,29,87,30.27,,South,8.1,,,,,190,2012-12-02 18:00:00
1:00 PM,53.6,51.8,94,29.90,7.0,SW,9.2,-,N/A,,Overcast,230,2012-12-02 18:00:00
2:00 PM,55.4,53.6,94,29.91,8.0,WSW,9.2,-,N/A,,Overcast,250,2012-12-02 19:00:00
3:00 PM,55.4,53.6,94,29.92,8.0,West,5.8,-,N/A,,Overcast,260,2012-12-02 20:00:00
3:46 PM,55.4,53.6,94,29.94,7.0,West,3.5,-,N/A,,Overcast,260,2012-12-02 20:46:00
4:00 PM,55.4,53.6,94,29.95,7.0,West,3.5,-,N/A,,Overcast,270,2012-12-02 21:00:00
5:00 PM,55.4,51.8,88,29.98,7.0,WNW,3.5,-,N/A,,Overcast,290,2012-12-02 22:00:00
6:00 PM,53.6,51.8,94,30.01,9.0,North,4.6,-,N/A,,Overcast,350,2012-12-02 23:00:00
6:13 PM,50.0,48.2,94,30.03,7.0,NNE,8.1,-,N/A,,Overcast,30,2012-12-02 23:13:00
7:00 PM,40,39,96,30.06,,South,8.1,,,,,180,2012-12-03 00:00:00
7:00 PM,48.2,46.4,93,30.06,7.0,NNE,10.4,-,N/A,,Overcast,30,2012-12-03 00:00:00
7:18 PM,46.4,46.4,100,30.07,5.0,NNE,9.2,-,N/A,,Overcast,30,2012-12-03 00:18:00
8:00 PM,46.4,44.6,93,30.09,4.0,NE,8.1,-,N/A,,Overcast,50,2012-12-03 01:00:00
8:35 PM,46.4,44.6,93,30.10,6.0,ENE,6.9,-,N/A,,Overcast,60,2012-12-03 01:35:00
9:00 PM,46.4,44.6,93,30.11,6.0,NE,4.6,-,N/A,,Overcast,50,2012-12-03 02:00:00
9:06 PM,46.4,42.8,87,30.10,6.0,NE,6.9,-,N/A,,Overcast,40,2012-12-03 02:06:00
9:25 PM,44.6,42.8,93,30.11,6.0,NNE,3.5,-,N/A,,Overcast,30,2012-12-03 02:25:00
9:39 PM,44.6,42.8,93,30.12,5.0,NE,5.8,-,N/A,,Overcast,40,2012-12-03 02:39:00
10:00 PM,44.6,42.8,93,30.12,5.0,NNE,4.6,-,N/A,,Overcast,30,2012-12-03 03:00:00
10:16 PM,44.6,42.8,93,30.11,4.0,Variable,2.3,-,N/A,,Overcast,0,2012-12-03 03:16:00
11:00 PM,42.8,42.8,100,30.13,4.0,NNE,3.5,-,N/A,,Overcast,30,2012-12-03 04:00:00
11:37 PM,44.6,42.8,93,30.14,6.0,East,2.3,-,N/A,,Overcast,100,2012-12-03 04:37:00